Location: U-46 Planetarium
(42.0300°N, 88.2740°W)
Time: 05:13:25
(UTC-05:00)

Meteor 1-23 Rocket - Pass Details

Date: 16 December 2017
Orbit: 840 x 885 km, 81.3° (Epoch: 15 July)

Event Time Altitude Azimuth Distance (km) Brightness Sun altitude
Rises 18:11:28 0° 195° (SSW) 3,463 7.8 -19.4°
Reaches altitude 10° 18:13:56 10° 197° (SSW) 2,524 7.1 -19.8°
Maximum altitude 18:19:39 70° 281° (W) 928 4.5 -20.9°
Drops below altitude 10° 18:25:21 10° 5° (N) 2,513 6.5 -21.9°
Enters shadow 18:26:55 - 7° (N) 3,108 7.0 -22.2°
